• In Deutschland
  • Länderverzeichnis
  • Für 7 Tage
  • Wassertemperatur
  • Satellitenkarten
  • Wetterkarte
  • Widgets
  • user-avatar
    Anmelden

    Stündliche Wetter Longkou

    Heute, 25 Februar, Sonntag

    Zeit Temperatur Niederschläge Wind Luftdruck Luftfeuchtigkeit
    00:00 -3°C° 0 mm 2 m/S 773 mmHg 47%
    01:00 -1°C° 0 mm 1 m/S 772 mmHg 48%
    02:00 -1°C° 0 mm 1 m/S 772 mmHg 47%
    03:00 -1°C° 0 mm 1 m/S 772 mmHg 47%
    04:00 -3°C° 0 mm 0 m/S 771 mmHg 47%
    05:00 -3°C° 0 mm 0 m/S 771 mmHg 47%
    06:00 -1°C° 0 mm 1 m/S 771 mmHg 45%
    07:00 -1°C° 0 mm 1 m/S 771 mmHg 42%
    08:00 0°C° 0 mm 1 m/S 771 mmHg 38%
    09:00 +1°C° 0 mm 2 m/S 770 mmHg 38%
    10:00 +2°C° 0 mm 2 m/S 770 mmHg 37%
    11:00 +3°C° 0 mm 3 m/S 770 mmHg 37%
    12:00 +4°C° 0 mm 3 m/S 769 mmHg 39%
    13:00 +5°C° 0 mm 3 m/S 769 mmHg 41%
    14:00 +7°C° 0 mm 2 m/S 768 mmHg 42%
    15:00 +6°C° 0 mm 2 m/S 768 mmHg 44%
    16:00 +6°C° 0 mm 2 m/S 768 mmHg 46%
    17:00 +6°C° 0 mm 1 m/S 768 mmHg 47%
    18:00 +5°C° 0 mm 1 m/S 768 mmHg 50%
    19:00 +3°C° 0 mm 2 m/S 768 mmHg 53%
    20:00 +2°C° 0 mm 2 m/S 768 mmHg 55%
    21:00 +2°C° 0 mm 2 m/S 768 mmHg 59%
    22:00 +1°C° 0 mm 3 m/S 767 mmHg 63%
    23:00 -1°C° 0 mm 4 m/S 767 mmHg 67%

    Morgen, 26 Februar, Montag

    Zeit Temperatur Niederschläge Wind Luftdruck Luftfeuchtigkeit
    00:00 -1°C° 0 mm 4 m/S 767 mmHg 71%
    01:00 -1°C° 0 mm 4 m/S 767 mmHg 75%
    02:00 -1°C° 0 mm 4 m/S 767 mmHg 80%
    03:00 -1°C° 0 mm 4 m/S 767 mmHg 81%
    04:00 -1°C° 0 mm 5 m/S 766 mmHg 83%
    05:00 -1°C° 0 mm 5 m/S 766 mmHg 85%
    06:00 0°C° 0 mm 5 m/S 766 mmHg 83%
    07:00 -1°C° 0 mm 6 m/S 766 mmHg 81%
    08:00 +1°C° 0 mm 6 m/S 766 mmHg 79%
    09:00 +3°C° 0 mm 6 m/S 765 mmHg 70%
    10:00 +7°C° 0 mm 6 m/S 765 mmHg 62%
    11:00 +9°C° 0 mm 6 m/S 765 mmHg 53%
    12:00 +10°C° 0 mm 6 m/S 764 mmHg 49%
    13:00 +11°C° 0 mm 6 m/S 764 mmHg 45%
    14:00 +13°C° 0 mm 5 m/S 763 mmHg 42%
    15:00 +13°C° 0 mm 5 m/S 763 mmHg 44%
    16:00 +13°C° 0 mm 4 m/S 763 mmHg 45%
    17:00 +12°C° 0 mm 4 m/S 763 mmHg 47%
    18:00 +11°C° 0 mm 3 m/S 763 mmHg 55%
    19:00 +9°C° 0 mm 3 m/S 763 mmHg 64%
    20:00 +7°C° 0 mm 3 m/S 763 mmHg 72%
    21:00 +7°C° 0 mm 3 m/S 764 mmHg 76%
    22:00 +5°C° 0 mm 3 m/S 764 mmHg 80%
    23:00 +5°C° 0 mm 3 m/S 764 mmHg 83%

    übermorgen, 27 Februar, Dienstag

    Zeit Temperatur Niederschläge Wind Luftdruck Luftfeuchtigkeit
    00:00 +4°C° 0 mm 3 m/S 764 mmHg 84%
    01:00 +5°C° 0 mm 2 m/S 764 mmHg 85%
    02:00 +5°C° 0 mm 2 m/S 764 mmHg 85%
    03:00 +5°C° 0 mm 2 m/S 764 mmHg 85%
    04:00 +5°C° 0 mm 2 m/S 764 mmHg 85%
    05:00 +5°C° 0 mm 2 m/S 765 mmHg 85%
    06:00 +4°C° 0 mm 3 m/S 765 mmHg 81%
    07:00 +5°C° 0 mm 4 m/S 766 mmHg 78%
    08:00 +5°C° 0 mm 5 m/S 766 mmHg 74%
    09:00 +5°C° 0 mm 6 m/S 766 mmHg 69%
    10:00 +5°C° 0 mm 7 m/S 767 mmHg 64%
    11:00 +6°C° 0 mm 8 m/S 767 mmHg 58%
    12:00 +6°C° 0 mm 7 m/S 766 mmHg 58%
    13:00 +6°C° 0 mm 7 m/S 766 mmHg 58%
    14:00 +8°C° 0 mm 7 m/S 765 mmHg 59%
    15:00 +6°C° 0 mm 7 m/S 765 mmHg 62%
    16:00 +5°C° 0 mm 6 m/S 765 mmHg 66%
    17:00 +4°C° 0 mm 6 m/S 765 mmHg 70%
    18:00 +4°C° 0 mm 6 m/S 765 mmHg 73%
    19:00 +3°C° 0 mm 6 m/S 765 mmHg 77%
    20:00 +3°C° 0 mm 5 m/S 765 mmHg 80%
    21:00 +3°C° 0,1 mm 5 m/S 765 mmHg 81%
    22:00 +3°C° 0,1 mm 5 m/S 764 mmHg 82%
    23:00 +4°C° 0,1 mm 4 m/S 764 mmHg 83%

    28 Februar, Mittwoch

    Zeit Temperatur Niederschläge Wind Luftdruck Luftfeuchtigkeit
    00:00 +4°C° 0,4 mm 4 m/S 763 mmHg 85%
    01:00 +4°C° 0,4 mm 4 m/S 763 mmHg 87%
    02:00 +4°C° 0,4 mm 3 m/S 762 mmHg 89%
    03:00 +4°C° 0,3 mm 3 m/S 762 mmHg 90%
    04:00 +4°C° 0,3 mm 3 m/S 761 mmHg 91%
    05:00 +4°C° 0,3 mm 3 m/S 761 mmHg 92%
    06:00 +4°C° 0 mm 3 m/S 760 mmHg 91%
    07:00 +4°C° 0 mm 3 m/S 760 mmHg 89%
    08:00 +5°C° 0 mm 2 m/S 760 mmHg 88%
    09:00 +7°C° 0 mm 3 m/S 759 mmHg 80%
    10:00 +9°C° 0 mm 3 m/S 759 mmHg 72%
    11:00 +11°C° 0 mm 3 m/S 758 mmHg 64%
    12:00 +12°C° 0 mm 3 m/S 757 mmHg 61%
    13:00 +13°C° 0 mm 4 m/S 756 mmHg 58%
    14:00 +13°C° 0 mm 4 m/S 755 mmHg 54%
    15:00 +13°C° 0 mm 4 m/S 755 mmHg 57%
    16:00 +13°C° 0 mm 4 m/S 755 mmHg 59%
    17:00 +12°C° 0 mm 4 m/S 755 mmHg 61%
    18:00 +11°C° 0 mm 4 m/S 755 mmHg 67%
    19:00 +8°C° 0 mm 4 m/S 756 mmHg 74%
    20:00 +7°C° 0 mm 5 m/S 756 mmHg 80%
    21:00 +5°C° 0 mm 6 m/S 757 mmHg 76%
    22:00 +4°C° 0 mm 7 m/S 758 mmHg 71%
    23:00 +3°C° 0 mm 9 m/S 759 mmHg 67%

    1 März, Donnerstag

    Zeit Temperatur Niederschläge Wind Luftdruck Luftfeuchtigkeit
    00:00 +1°C° 0 mm 9 m/S 760 mmHg 61%
    01:00 0°C° 0 mm 10 m/S 761 mmHg 54%
    02:00 -2°C° 0 mm 10 m/S 762 mmHg 48%
    03:00 -3°C° 0 mm 9 m/S 762 mmHg 46%
    04:00 -3°C° 0 mm 9 m/S 763 mmHg 45%
    05:00 -4°C° 0 mm 8 m/S 763 mmHg 43%
    06:00 -4°C° 0 mm 8 m/S 764 mmHg 41%
    07:00 -2°C° 0 mm 8 m/S 765 mmHg 39%
    08:00 -2°C° 0 mm 8 m/S 766 mmHg 37%
    09:00 -2°C° 0 mm 8 m/S 766 mmHg 35%
    10:00 -1°C° 0 mm 8 m/S 766 mmHg 33%
    11:00 -1°C° 0 mm 8 m/S 767 mmHg 31%
    12:00 -1°C° 0 mm 7 m/S 766 mmHg 30%
    13:00 -1°C° 0 mm 6 m/S 766 mmHg 29%
    14:00 -1°C° 0 mm 6 m/S 766 mmHg 28%
    15:00 0°C° 0 mm 5 m/S 766 mmHg 28%
    16:00 0°C° 0 mm 4 m/S 766 mmHg 28%
    17:00 0°C° 0 mm 3 m/S 766 mmHg 29%
    18:00 -1°C° 0 mm 3 m/S 766 mmHg 31%
    19:00 -1°C° 0 mm 3 m/S 766 mmHg 34%
    20:00 -2°C° 0 mm 3 m/S 767 mmHg 37%
    21:00 -2°C° 0 mm 3 m/S 766 mmHg 36%
    22:00 -3°C° 0 mm 4 m/S 766 mmHg 36%
    23:00 -3°C° 0 mm 4 m/S 766 mmHg 35%

    2 März, Freitag

    Zeit Temperatur Niederschläge Wind Luftdruck Luftfeuchtigkeit
    00:00 -3°C° 0 mm 4 m/S 766 mmHg 34%
    01:00 -4°C° 0 mm 5 m/S 765 mmHg 33%
    02:00 -4°C° 0 mm 5 m/S 765 mmHg 33%
    03:00 -4°C° 0 mm 6 m/S 764 mmHg 36%
    04:00 -4°C° 0 mm 6 m/S 763 mmHg 39%
    05:00 -4°C° 0 mm 7 m/S 763 mmHg 42%
    06:00 -3°C° 0 mm 7 m/S 763 mmHg 45%
    07:00 -2°C° 0 mm 8 m/S 762 mmHg 48%
    08:00 -1°C° 0 mm 8 m/S 762 mmHg 51%
    09:00 0°C° 0 mm 8 m/S 762 mmHg 47%
    10:00 +2°C° 0 mm 8 m/S 762 mmHg 44%
    11:00 +5°C° 0 mm 8 m/S 761 mmHg 41%
    12:00 +6°C° 0 mm 7 m/S 760 mmHg 41%
    13:00 +8°C° 0 mm 7 m/S 760 mmHg 42%
    14:00 +9°C° 0 mm 7 m/S 759 mmHg 43%
    15:00 +8°C° 0 mm 7 m/S 759 mmHg 48%
    16:00 +8°C° 0 mm 7 m/S 759 mmHg 53%
    17:00 +6°C° 0 mm 7 m/S 758 mmHg 57%
    18:00 +5°C° 0 mm 7 m/S 759 mmHg 64%
    19:00 +4°C° 0 mm 7 m/S 759 mmHg 70%
    20:00 +3°C° 0 mm 7 m/S 759 mmHg 76%
    21:00 +3°C° 0 mm 7 m/S 759 mmHg 80%
    22:00 +2°C° 0 mm 7 m/S 759 mmHg 84%
    23:00 +2°C° 0 mm 7 m/S 759 mmHg 88%
    Mehr zeigen